TA5KA Weather Reports


Display with metric or nautical units.
time (UTC)temp
F
wind
direction
speed
MPH
gust
MPH
rain 1hr
in
rain 24hr
in
rain mn
in
humidity
%
barometer
mb
20260504100523 52 274 6.0 7.0 0.00 0.00 0.00 50 1006.0
20260504081644 49 271 4.0 4.0 0.00 0.00 0.00 57 1006.0
20260504081507 49 271 4.0 4.0 0.00 0.00 0.00 57 1006.0
20260504080642 49 271 4.0 4.0 0.00 0.00 0.00 57 1006.0
20260504080505 49 271 4.0 4.0 0.00 0.00 0.00 57 1006.0
20260504050618 40 259 1.0 1.0 0.00 0.00 0.00 81 1005.0
20260504050439 40 259 1.0 1.0 0.00 0.00 0.00 81 1005.0
20260504045616 39 259 1.0 1.0 0.00 0.00 0.00 81 1005.0
20260504045437 39 259 1.0 1.0 0.00 0.00 0.00 81 1005.0
20260504044615 39 259 1.0 1.0 0.00 0.00 0.00 81 1005.0
20260504044436 39 259 1.0 1.0 0.00 0.00 0.00 81 1005.0
20260504043613 40 259 1.0 1.0 0.00 0.00 0.00 81 1005.0
20260504043435 40 259 1.0 1.0 0.00 0.00 0.00 81 1005.0
20260504042612 40 259 1.0 1.0 0.00 0.00 0.00 81 1005.0
20260504042434 40 259 1.0 1.0 0.00 0.00 0.00 81 1005.0
20260504041611 40 259 1.0 1.0 0.00 0.00 0.00 81 1005.0
20260504041432 40 259 1.0 1.0 0.00 0.00 0.00 81 1005.0
20260504040610 40 259 1.0 1.0 0.00 0.00 0.00 81 1005.0
20260504040431 40 259 1.0 1.0 0.00 0.00 0.00 81 1005.0
20260504035608 40 192 1.0 3.0 0.00 0.00 0.00 81 1005.0
20260504035430 40 192 1.0 3.0 0.00 0.00 0.00 81 1005.0
20260504034607 39 192 1.0 3.0 0.00 0.00 0.00 81 1005.0
20260504034428 39 192 1.0 3.0 0.00 0.00 0.00 81 1005.0
20260504033605 39 192 1.0 3.0 0.00 0.00 0.00 93 1004.0
20260504033427 39 192 1.0 3.0 0.00 0.00 0.00 93 1004.0
20260504032603 39 192 1.0 3.0 0.00 0.00 0.00 93 1004.0
20260504032426 39 192 1.0 3.0 0.00 0.00 0.00 93 1004.0
20260504031602 39 192 1.0 3.0 0.00 0.00 0.00 93 1004.0
20260504031424 39 192 1.0 3.0 0.00 0.00 0.00 93 1004.0
20260504030600 40 192 1.0 3.0 0.00 0.00 0.00 93 1004.0
20260504030422 40 192 1.0 3.0 0.00 0.00 0.00 93 1004.0
20260504025603 40 88 1.0 2.0 0.00 0.00 0.00 93 1004.0
20260504025559 40 88 1.0 2.0 0.00 0.00 0.00 93 1004.0
20260504025421 40 88 1.0 2.0 0.00 0.00 0.00 93 1004.0
20260504024601 40 119 1.0 1.0 0.00 0.00 0.00 93 1004.0
20260504024558 40 119 1.0 1.0 0.00 0.00 0.00 93 1004.0
20260504024420 40 119 1.0 1.0 0.00 0.00 0.00 93 1004.0
20260504023600 40 119 1.0 1.0 0.00 0.00 0.00 93 1004.0
20260504023557 40 119 1.0 1.0 0.00 0.00 0.00 93 1004.0
20260504023418 40 119 1.0 1.0 0.00 0.00 0.00 93 1004.0
20260504022555 40 119 1.0 1.0 0.00 0.00 0.00 93 1004.0
20260504022417 40 119 1.0 1.0 0.00 0.00 0.00 93 1004.0
20260504021554 40 119 1.0 1.0 0.00 0.00 0.00 93 1004.0
20260504021415 40 119 1.0 1.0 0.00 0.00 0.00 93 1004.0
20260504020552 39 146 1.0 3.0 0.00 0.00 0.00 93 1004.0
20260504020414 39 146 1.0 3.0 0.00 0.00 0.00 93 1004.0
20260504015551 39 146 1.0 3.0 0.00 0.00 0.00 93 1004.0
20260504015412 39 146 1.0 3.0 0.00 0.00 0.00 93 1004.0
20260504014550 43 146 1.0 3.0 0.00 0.00 0.00 93 1004.0
20260504014411 43 146 1.0 3.0 0.00 0.00 0.00 93 1004.0
20260504013548 43 146 1.0 3.0 0.00 0.00 0.00 93 1004.0
20260504013410 43 146 1.0 3.0 0.00 0.00 0.00 93 1004.0
20260504012547 43 146 1.0 3.0 0.00 0.00 0.00 93 1004.0
20260504012408 43 146 1.0 3.0 0.00 0.00 0.00 93 1004.0
20260504011545 43 146 1.0 3.0 0.00 0.00 0.00 93 1004.0
20260504011407 43 146 1.0 3.0 0.00 0.00 0.00 93 1004.0
20260504010544 44 146 1.0 3.0 0.00 0.00 0.00 93 1004.0
20260504010406 44 146 1.0 3.0 0.00 0.00 0.00 93 1004.0
20260504005543 43 158 3.0 5.0 0.00 0.00 0.00 93 1004.0
20260504005404 43 158 3.0 5.0 0.00 0.00 0.00 93 1004.0
20260504004542 43 158 3.0 5.0 0.00 0.00 0.00 93 1004.0
20260504004403 43 158 3.0 5.0 0.00 0.00 0.00 93 1004.0
20260504003540 43 158 3.0 5.0 0.00 0.00 0.00 93 1004.0
20260504003402 43 158 3.0 5.0 0.00 0.00 0.00 93 1004.0
20260504002539 43 158 3.0 5.0 0.00 0.00 0.00 93 1004.0
20260504002400 43 158 3.0 5.0 0.00 0.00 0.00 93 1004.0
20260504001538 45 158 3.0 5.0 0.00 0.00 0.00 93 1004.0
20260504001359 45 158 3.0 5.0 0.00 0.00 0.00 93 1004.0
20260504000537 45 158 3.0 5.0 0.00 0.00 0.00 93 1004.0
20260504000357 45 158 3.0 5.0 0.00 0.00 0.00 93 1004.0
20260503235535 45 153 3.0 5.0 0.00 0.00 0.00 93 1004.0
20260503234534 45 153 3.0 5.0 0.00 0.00 0.00 93 1004.0
20260503234352 45 153 3.0 5.0 0.00 0.00 0.00 93 1004.0
20260503233533 45 153 3.0 5.0 0.00 0.00 0.00 93 1004.0
20260503233350 45 153 3.0 5.0 0.00 0.00 0.00 93 1004.0
20260503232531 45 153 3.0 5.0 0.00 0.00 0.00 93 1004.0
20260503232349 45 153 3.0 5.0 0.00 0.00 0.00 93 1004.0
20260503231530 45 153 3.0 5.0 0.00 0.00 0.00 93 1004.0
20260503231348 45 153 3.0 5.0 0.00 0.00 0.00 93 1004.0
20260503230528 45 153 3.0 5.0 0.00 0.00 0.00 93 1004.0
20260503230347 45 153 3.0 5.0 0.00 0.00 0.00 93 1004.0
20260503225527 45 141 2.0 3.0 0.02 0.00 0.00 93 1004.0
20260503225345 45 141 2.0 3.0 0.02 0.00 0.00 93 1004.0
20260503224526 45 141 2.0 3.0 0.02 0.00 0.00 93 1004.0
20260503224344 45 141 2.0 3.0 0.02 0.00 0.00 93 1004.0
20260503223524 45 141 2.0 3.0 0.02 0.00 0.00 93 1004.0
20260503223343 45 141 2.0 3.0 0.02 0.00 0.00 93 1004.0
20260503222523 45 141 2.0 3.0 0.02 0.00 0.00 93 1004.0
20260503222341 45 141 2.0 3.0 0.02 0.00 0.00 93 1004.0
20260503221522 45 141 2.0 3.0 0.02 0.00 0.00 93 1004.0
20260503221340 45 141 2.0 3.0 0.02 0.00 0.00 93 1004.0
20260503220521 45 141 2.0 3.0 0.02 0.00 0.00 93 1004.0
20260503220338 45 141 2.0 3.0 0.02 0.00 0.00 93 1004.0
20260503215519 45 141 2.0 3.0 0.02 0.00 0.00 93 1004.0
20260503215337 45 141 2.0 3.0 0.02 0.00 0.00 93 1004.0
20260503214518 45 141 2.0 3.0 0.02 0.00 0.00 93 1004.0
20260503214335 45 141 2.0 3.0 0.02 0.00 0.00 93 1004.0
20260503213517 46 141 2.0 3.0 0.02 0.00 0.00 87 1004.0
20260503213334 46 141 2.0 3.0 0.02 0.00 0.00 87 1004.0
20260503212516 46 141 2.0 3.0 0.02 0.00 0.00 87 1004.0
20260503212333 46 141 2.0 3.0 0.02 0.00 0.00 87 1004.0
20260503211515 47 141 2.0 3.0 0.02 0.00 0.00 93 1003.0
20260503211331 47 141 2.0 3.0 0.02 0.00 0.00 93 1003.0
20260503210513 47 258 2.0 2.0 0.00 0.00 0.00 93 1003.0
20260503210330 47 258 2.0 2.0 0.00 0.00 0.00 93 1003.0
20260503205512 47 258 2.0 2.0 0.00 0.00 0.00 93 1003.0
20260503205329 47 258 2.0 2.0 0.00 0.00 0.00 93 1003.0
20260503204511 47 258 2.0 2.0 0.00 0.00 0.00 93 1003.0
20260503204327 47 258 2.0 2.0 0.00 0.00 0.00 93 1003.0
20260503203510 46 284 3.0 4.0 0.00 0.00 0.00 87 1004.0
20260503203326 46 284 3.0 4.0 0.00 0.00 0.00 87 1004.0
20260503202508 48 284 3.0 4.0 0.00 0.00 0.00 87 1003.0
20260503202325 48 284 3.0 4.0 0.00 0.00 0.00 87 1003.0
20260503201507 48 284 3.0 4.0 0.00 0.00 0.00 87 1003.0
20260503201324 48 284 3.0 4.0 0.00 0.00 0.00 87 1003.0
20260503200506 48 284 3.0 4.0 0.00 0.00 0.00 87 1003.0
20260503200323 48 284 3.0 4.0 0.00 0.00 0.00 87 1003.0
20260503195504 49 267 3.0 3.0 0.00 0.00 0.00 87 1003.0
20260503195321 49 267 3.0 3.0 0.00 0.00 0.00 87 1003.0
20260503194504 49 267 3.0 3.0 0.00 0.00 0.00 87 1003.0
20260503194319 49 267 3.0 3.0 0.00 0.00 0.00 87 1003.0
20260503193502 49 267 3.0 3.0 0.00 0.00 0.00 87 1003.0
20260503193318 49 267 3.0 3.0 0.00 0.00 0.00 87 1003.0
20260503192501 48 267 3.0 3.0 0.00 0.00 0.00 93 1003.0
20260503192317 48 267 3.0 3.0 0.00 0.00 0.00 93 1003.0
20260503191502 49 267 3.0 3.0 0.00 0.00 0.00 93 1003.0
20260503191459 49 267 3.0 3.0 0.00 0.00 0.00 93 1003.0
20260503191315 49 267 3.0 3.0 0.00 0.00 0.00 93 1003.0
20260503190501 48 351 1.0 1.0 0.00 0.00 0.00 93 1003.0
20260503190457 48 351 1.0 1.0 0.00 0.00 0.00 93 1003.0
20260503190314 48 351 1.0 1.0 0.00 0.00 0.00 93 1003.0
20260503185456 48 351 1.0 1.0 0.00 0.00 0.00 93 1003.0
20260503185312 48 351 1.0 1.0 0.00 0.00 0.00 93 1003.0
20260503184455 48 351 1.0 1.0 0.00 0.00 0.00 87 1002.0
20260503184310 48 351 1.0 1.0 0.00 0.00 0.00 87 1002.0
20260503183453 48 351 1.0 1.0 0.00 0.00 0.00 87 1002.0
20260503183309 48 351 1.0 1.0 0.00 0.00 0.00 87 1002.0
20260503182452 49 351 1.0 1.0 0.00 0.00 0.00 87 1002.0
20260503182308 49 351 1.0 1.0 0.00 0.00 0.00 87 1002.0
20260503181451 49 351 1.0 1.0 0.00 0.00 0.00 87 1002.0
20260503181306 49 351 1.0 1.0 0.00 0.00 0.00 87 1002.0
20260503180450 43 351 1.0 1.0 0.00 0.00 0.00 89 1003.0
20260503180304 43 351 1.0 1.0 0.00 0.00 0.00 89 1003.0
20260503175448 48 57 3.0 5.0 0.00 0.00 0.00 87 1002.0
20260503175304 48 57 3.0 5.0 0.00 0.00 0.00 87 1002.0
20260503174447 48 57 3.0 5.0 0.00 0.00 0.00 87 1002.0
20260503174302 48 57 3.0 5.0 0.00 0.00 0.00 87 1002.0
20260503173446 49 57 3.0 5.0 0.00 0.00 0.00 87 1002.0
20260503173300 49 57 3.0 5.0 0.00 0.00 0.00 87 1002.0
20260503172444 49 57 3.0 5.0 0.00 0.00 0.00 87 1002.0
20260503172259 49 57 3.0 5.0 0.00 0.00 0.00 87 1002.0
20260503171443 50 57 3.0 5.0 0.00 0.00 0.00 82 1003.0
20260503171257 50 57 3.0 5.0 0.00 0.00 0.00 82 1003.0
20260503170442 50 57 3.0 5.0 0.00 0.00 0.00 82 1003.0
20260503170256 50 57 3.0 5.0 0.00 0.00 0.00 82 1003.0
20260503150427 46 57 7.0 8.0 0.00 0.00 0.00 84 1003.0
20260503150238 46 57 7.0 8.0 0.00 0.00 0.00 84 1003.0
20260503140230 51 64 2.0 2.0 0.02 0.00 0.00 87 1005.0
20260503131411 50 61 3.0 3.0 0.00 0.00 0.00 87 1006.0
20260503131223 50 61 3.0 3.0 0.00 0.00 0.00 87 1006.0
20260503130411 46 61 3.0 3.0 0.00 0.00 0.00 89 1004.0
20260503130221 46 61 3.0 3.0 0.00 0.00 0.00 89 1004.0
20260503120213 51 38 2.0 2.0 0.00 0.00 0.00 87 1006.0
20260503110354 50 337 1.0 1.0 0.05 0.00 0.00 87 1007.0
20260503110204 50 337 1.0 1.0 0.05 0.00 0.00 87 1007.0